Location: Eaton Estates
(41.3089°N, 82.0057°W)
Time: 02:16:13
(UTC+00:00)

Cosmos 2208 Rocket - Pass Details

Date: 17 June 2021
Orbit: 754 x 805 km, 74.0° (Epoch: 02 August)

Event Time Altitude Azimuth Distance (km) Brightness Sun altitude
Exits shadow 07:56:31 28° 206° (SSW) 1,465 4.9 -16.8°
Maximum altitude 07:59:29 79° 290° (WNW) 818 4.1 -16.5°
Drops below altitude 10° 08:04:57 10° 17° (NNE) 2,391 7.7 -15.9°
Sets 08:07:23 0° 19° (NNE) 3,328 8.7 -15.6°
